Time,TemperatureF,DewpointF,PressureIn,WindDirection,WindDirectionDegrees,WindSpeedMPH,WindSpeedGustMPH,Humidity,HourlyPrecipIn,Conditions,Clouds,dailyrainin,SoftwareType,DateUTC
2013-01-06 00:00:00,47.6,44.8,30.34,NW,306,2.3,2.3,90,0.00,RA,,0.00,WeatherDisplay:10.37,2013-01-06 00:00:00,
2013-01-06 00:05:00,47.5,44.7,30.35,SSW,205,3.5,3.5,90,0.00,RA,,0.00,WeatherDisplay:10.37,2013-01-06 00:05:00,
2013-01-06 00:10:00,47.5,44.7,30.36,ESE,104,3.5,3.5,90,0.00,CLR,,0.00,WeatherDisplay:10.37,2013-01-06 00:10:00,
2013-01-06 00:15:00,47.3,44.5,30.36,ESE,120,3.5,3.5,90,0.00,CLR,,0.00,WeatherDisplay:10.37,2013-01-06 00:15:00,
2013-01-06 00:20:00,46.5,43.7,30.36,ESE,112,2.0,2.0,90,0.00,CLR,,0.00,WeatherDisplay:10.37,2013-01-06 00:20:00,
2013-01-06 00:25:00,46.2,43.7,30.36,West,267,3.5,3.5,91,0.00,CLR,,0.00,WeatherDisplay:10.37,2013-01-06 00:25:00,
2013-01-06 00:30:00,46.4,44.2,30.36,West,280,3.5,3.5,92,0.00,CLR,,0.00,WeatherDisplay:10.37,2013-01-06 00:30:00,
2013-01-06 00:35:00,46.7,44.2,30.36,West,262,1.2,1.2,91,0.00,CLR,,0.00,WeatherDisplay:10.37,2013-01-06 00:35:00,
2013-01-06 00:40:00,46.8,44.3,30.35,ESE,122,2.3,2.3,91,0.00,CLR,,0.00,WeatherDisplay:10.37,2013-01-06 00:40:00,
2013-01-06 00:45:00,46.7,44.2,30.36,SW,232,2.3,2.3,91,0.00,CLR,,0.00,WeatherDisplay:10.37,2013-01-06 00:45:00,
2013-01-06 00:50:00,46.5,44.3,30.36,West,278,2.3,2.3,92,0.00,CLR,,0.00,WeatherDisplay:10.37,2013-01-06 00:50:00,
2013-01-06 00:55:00,46.1,43.6,30.35,WNW,300,4.6,4.6,91,0.00,CLR,,0.00,WeatherDisplay:10.37,2013-01-06 00:55:00,
2013-01-06 01:00:00,45.6,43.4,30.37,East,93,6.0,6.0,92,0.00,CLR,,0.00,WeatherDisplay:10.37,2013-01-06 01:00:00,
2013-01-06 01:05:00,45.6,43.7,30.37,ESE,119,6.9,6.9,93,0.00,CLR,,0.00,WeatherDisplay:10.37,2013-01-06 01:05:00,
2013-01-06 01:10:00,45.4,43.2,30.37,North,8,3.5,3.5,92,0.00,CLR,,0.00,WeatherDisplay:10.37,2013-01-06 01:10:00,
2013-01-06 01:15:00,45.4,43.5,30.38,WSW,250,4.0,4.0,93,0.00,CLR,,0.00,WeatherDisplay:10.37,2013-01-06 01:15:00,
2013-01-06 01:20:00,46.0,44.1,30.38,WNW,296,2.0,2.0,93,0.00,CLR,,0.00,WeatherDisplay:10.37,2013-01-06 01:20:00,
2013-01-06 01:25:00,45.7,43.5,30.38,WNW,293,2.3,2.3,92,0.00,CLR,,0.00,WeatherDisplay:10.37,2013-01-06 01:25:00,
2013-01-06 01:30:00,45.4,43.2,30.39,WNW,295,1.2,0.0,92,0.00,CLR,,0.00,WeatherDisplay:10.37,2013-01-06 01:30:00,
2013-01-06 01:36:00,44.8,42.6,30.39,NNW,340,0.0,0.0,92,0.00,CLR,,0.00,WeatherDisplay:10.37,2013-01-06 01:36:00,
2013-01-06 01:41:00,44.3,42.4,30.39,NNW,340,0.0,0.0,93,0.00,CLR,,0.00,WeatherDisplay:10.37,2013-01-06 01:41:00,
2013-01-06 01:46:00,44.2,42.3,30.39,WNW,293,1.2,0.0,93,0.00,CLR,,0.00,WeatherDisplay:10.37,2013-01-06 01:46:00,
2013-01-06 01:51:00,45.1,43.5,30.39,West,273,2.3,2.3,94,0.00,CLR,,0.00,WeatherDisplay:10.37,2013-01-06 01:51:00,
2013-01-06 01:56:00,45.0,43.1,30.39,West,273,1.2,1.2,93,0.00,CLR,,0.00,WeatherDisplay:10.37,2013-01-06 01:56:00,
2013-01-06 02:01:00,44.4,42.5,30.39,NNW,333,2.3,2.3,93,0.00,CLR,,0.00,WeatherDisplay:10.37,2013-01-06 02:01:00,
2013-01-06 02:06:00,44.3,42.7,30.39,NNW,333,2.3,2.3,94,0.00,CLR,,0.00,WeatherDisplay:10.37,2013-01-06 02:06:00,
2013-01-06 02:11:00,44.3,42.7,30.39,NNW,333,1.2,1.2,94,0.00,CLR,,0.00,WeatherDisplay:10.37,2013-01-06 02:11:00,
2013-01-06 02:16:00,44.5,42.9,30.39,NNW,333,2.3,2.3,94,0.00,CLR,,0.00,WeatherDisplay:10.37,2013-01-06 02:16:00,
2013-01-06 02:21:00,45.0,43.7,30.39,NNW,342,3.5,3.5,95,0.00,CLR,,0.00,WeatherDisplay:10.37,2013-01-06 02:21:00,
2013-01-06 02:26:00,45.8,44.4,30.40,WSW,245,3.5,3.5,95,0.00,CLR,,0.00,WeatherDisplay:10.37,2013-01-06 02:26:00,
2013-01-06 02:31:00,46.5,44.9,30.40,WNW,303,5.0,5.0,94,0.00,CLR,,0.00,WeatherDisplay:10.37,2013-01-06 02:31:00,
2013-01-06 02:36:00,47.0,45.1,30.41,WSW,254,3.5,3.5,93,0.00,CLR,,0.00,WeatherDisplay:10.37,2013-01-06 02:36:00,
2013-01-06 02:41:00,47.2,45.0,30.41,WNW,293,4.0,4.0,92,0.00,CLR,,0.00,WeatherDisplay:10.37,2013-01-06 02:41:00,
2013-01-06 02:46:00,47.1,44.9,30.40,West,272,1.2,1.3,92,0.00,CLR,,0.00,WeatherDisplay:10.37,2013-01-06 02:46:00,
2013-01-06 02:51:00,47.0,44.8,30.41,West,264,4.0,4.0,92,0.00,CLR,,0.00,WeatherDisplay:10.37,2013-01-06 02:51:00,
2013-01-06 02:56:00,47.1,45.2,30.41,WSW,256,10.4,10.4,93,0.00,CLR,,0.00,WeatherDisplay:10.37,2013-01-06 02:56:00,
2013-01-06 03:01:00,47.2,45.3,30.41,SW,229,10.4,10.4,93,0.00,CLR,,0.00,WeatherDisplay:10.37,2013-01-06 03:01:00,
2013-01-06 03:06:00,47.2,45.3,30.42,SW,216,11.5,11.5,93,0.00,CLR,,0.00,WeatherDisplay:10.37,2013-01-06 03:06:00,
2013-01-06 03:11:00,47.3,45.4,30.42,SW,235,11.5,11.5,93,0.00,CLR,,0.00,WeatherDisplay:10.37,2013-01-06 03:11:00,
2013-01-06 03:16:00,47.4,45.5,30.42,SW,217,11.5,11.5,93,0.00,CLR,,0.00,WeatherDisplay:10.37,2013-01-06 03:16:00,
2013-01-06 03:21:00,47.6,45.4,30.43,SW,226,10.4,10.4,92,0.00,CLR,,0.00,WeatherDisplay:10.37,2013-01-06 03:21:00,
2013-01-06 03:26:00,47.6,45.4,30.43,WSW,238,6.9,6.9,92,0.00,CLR,,0.00,WeatherDisplay:10.37,2013-01-06 03:26:00,
2013-01-06 03:31:00,47.6,45.4,30.43,WSW,240,5.8,5.8,92,0.00,CLR,,0.00,WeatherDisplay:10.37,2013-01-06 03:31:00,
2013-01-06 03:36:00,47.6,45.4,30.42,WSW,240,5.8,5.8,92,0.00,CLR,,0.00,WeatherDisplay:10.37,2013-01-06 03:36:00,
2013-01-06 03:41:00,47.5,45.6,30.43,WSW,239,6.0,6.0,93,0.00,CLR,,0.00,WeatherDisplay:10.37,2013-01-06 03:41:00,
2013-01-06 03:47:00,47.5,45.6,30.43,WSW,250,9.2,9.2,93,0.00,CLR,,0.00,WeatherDisplay:10.37,2013-01-06 03:47:00,
2013-01-06 03:52:00,47.5,45.3,30.44,WSW,246,8.1,8.1,92,0.00,CLR,,0.00,WeatherDisplay:10.37,2013-01-06 03:52:00,
2013-01-06 03:57:00,47.6,45.4,30.43,West,266,6.0,6.0,92,0.00,CLR,,0.00,WeatherDisplay:10.37,2013-01-06 03:57:00,
2013-01-06 04:02:00,47.7,45.5,30.43,WSW,252,4.6,4.6,92,0.00,CLR,,0.00,WeatherDisplay:10.37,2013-01-06 04:02:00,
2013-01-06 04:07:00,47.8,45.3,30.42,WNW,286,6.0,6.0,91,0.00,CLR,,0.00,WeatherDisplay:10.37,2013-01-06 04:07:00,
2013-01-06 04:13:00,47.7,45.2,30.43,WNW,288,3.5,3.5,91,0.00,CLR,,0.00,WeatherDisplay:10.37,2013-01-06 04:13:00,
2013-01-06 04:18:00,47.6,45.1,30.43,WNW,293,2.0,2.0,91,0.00,CLR,,0.00,WeatherDisplay:10.37,2013-01-06 04:18:00,
2013-01-06 04:23:00,47.5,45.3,30.42,SE,143,3.5,3.5,92,0.00,CLR,,0.00,WeatherDisplay:10.37,2013-01-06 04:23:00,
2013-01-06 04:28:00,47.4,45.2,30.42,ESE,122,3.5,3.5,92,0.00,CLR,,0.00,WeatherDisplay:10.37,2013-01-06 04:28:00,
2013-01-06 04:33:00,47.3,45.4,30.43,SE,140,5.8,5.8,93,0.00,CLR,,0.00,WeatherDisplay:10.37,2013-01-06 04:33:00,
2013-01-06 04:38:00,47.3,45.4,30.43,ESE,119,3.5,3.5,93,0.00,CLR,,0.00,WeatherDisplay:10.37,2013-01-06 04:38:00,
2013-01-06 04:43:00,47.1,45.5,30.42,ESE,115,2.3,2.3,94,0.00,CLR,,0.00,WeatherDisplay:10.37,2013-01-06 04:43:00,
2013-01-06 04:48:00,47.0,45.4,30.42,ESE,114,0.0,0.0,94,0.00,CLR,,0.00,WeatherDisplay:10.37,2013-01-06 04:48:00,
2013-01-06 04:53:00,46.9,45.3,30.42,East,100,2.0,2.0,94,0.00,CLR,,0.00,WeatherDisplay:10.37,2013-01-06 04:53:00,
2013-01-06 04:58:00,46.8,45.2,30.42,ENE,74,2.3,2.3,94,0.00,CLR,,0.00,WeatherDisplay:10.37,2013-01-06 04:58:00,
2013-01-06 05:00:00,46.8,45.2,30.41,NE,41,2.3,2.3,94,0.00,CLR,,0.00,WeatherDisplay:10.37,2013-01-06 05:00:00,
2013-01-06 05:01:00,46.8,45.2,30.41,NE,41,2.3,2.3,94,0.00,CLR,,0.00,WeatherDisplay:10.37,2013-01-06 05:01:00,
2013-01-06 05:03:00,46.7,45.1,30.41,NNE,30,2.0,2.0,94,0.00,CLR,,0.00,WeatherDisplay:10.37,2013-01-06 05:03:00,
2013-01-06 05:04:00,46.7,45.1,30.41,ENE,68,3.5,3.5,94,0.00,CLR,,0.00,WeatherDisplay:10.37,2013-01-06 05:04:00,
2013-01-06 05:05:00,46.7,45.1,30.41,ENE,68,3.5,3.5,94,0.00,CLR,,0.00,WeatherDisplay:10.37,2013-01-06 05:05:00,
2013-01-06 05:10:00,46.8,45.2,30.41,ENE,64,2.3,2.3,94,0.00,CLR,,0.00,WeatherDisplay:10.37,2013-01-06 05:10:00,
2013-01-06 05:15:00,46.8,45.2,30.41,NE,47,3.5,3.5,94,0.00,CLR,,0.00,WeatherDisplay:10.37,2013-01-06 05:15:00,
2013-01-06 05:20:00,46.8,45.2,30.41,NNE,25,1.2,1.2,94,0.00,CLR,,0.00,WeatherDisplay:10.37,2013-01-06 05:20:00,
2013-01-06 05:25:00,46.9,45.3,30.40,NE,40,3.5,3.5,94,0.00,CLR,,0.00,WeatherDisplay:10.37,2013-01-06 05:25:00,
2013-01-06 05:30:00,46.9,45.3,30.39,ENE,57,3.5,3.5,94,0.00,CLR,,0.00,WeatherDisplay:10.37,2013-01-06 05:30:00,
2013-01-06 05:35:00,46.8,45.2,30.40,NNE,29,4.0,4.0,94,0.00,CLR,,0.00,WeatherDisplay:10.37,2013-01-06 05:35:00,
2013-01-06 05:40:00,46.8,45.2,30.40,NE,47,3.5,3.5,94,0.00,CLR,,0.00,WeatherDisplay:10.37,2013-01-06 05:40:00,
2013-01-06 05:45:00,46.8,45.2,30.40,ENE,68,4.0,4.0,94,0.00,CLR,,0.00,WeatherDisplay:10.37,2013-01-06 05:45:00,
2013-01-06 05:50:00,46.9,45.3,30.40,North,10,2.3,2.3,94,0.00,CLR,,0.00,WeatherDisplay:10.37,2013-01-06 05:50:00,
2013-01-06 05:55:00,46.9,45.3,30.39,NE,53,3.5,3.5,94,0.00,CLR,,0.00,WeatherDisplay:10.37,2013-01-06 05:55:00,
2013-01-06 06:00:00,47.0,45.1,30.39,NE,53,1.2,1.2,93,0.00,CLR,,0.00,WeatherDisplay:10.37,2013-01-06 06:00:00,
2013-01-06 06:05:00,46.9,45.0,30.39,East,91,4.0,4.0,93,0.00,CLR,,0.00,WeatherDisplay:10.37,2013-01-06 06:05:00,
2013-01-06 06:10:00,47.0,45.1,30.39,ENE,60,3.5,3.5,93,0.00,CLR,,0.00,WeatherDisplay:10.37,2013-01-06 06:10:00,
2013-01-06 06:15:00,46.9,44.7,30.39,East,101,5.0,5.0,92,0.00,CLR,,0.00,WeatherDisplay:10.37,2013-01-06 06:15:00,
2013-01-06 06:20:00,46.7,44.8,30.39,NE,54,5.8,5.8,93,0.00,CLR,,0.00,WeatherDisplay:10.37,2013-01-06 06:20:00,
2013-01-06 06:25:00,46.5,44.6,30.39,ENE,77,5.0,5.0,93,0.00,CLR,,0.00,WeatherDisplay:10.37,2013-01-06 06:25:00,
2013-01-06 06:30:00,46.4,44.5,30.40,East,82,3.5,3.5,93,0.00,CLR,,0.00,WeatherDisplay:10.37,2013-01-06 06:30:00,
2013-01-06 06:35:00,46.4,44.5,30.39,NE,39,6.9,6.9,93,0.00,CLR,,0.00,WeatherDisplay:10.37,2013-01-06 06:35:00,
2013-01-06 06:40:00,46.3,44.4,30.39,ENE,64,6.0,6.0,93,0.00,CLR,,0.00,WeatherDisplay:10.37,2013-01-06 06:40:00,
2013-01-06 06:45:00,46.4,44.5,30.38,NNE,19,9.2,9.2,93,0.00,CLR,,0.00,WeatherDisplay:10.37,2013-01-06 06:45:00,
2013-01-06 06:50:00,46.5,44.6,30.38,ENE,60,6.9,6.9,93,0.00,CLR,,0.00,WeatherDisplay:10.37,2013-01-06 06:50:00,
2013-01-06 06:55:00,46.5,44.6,30.38,ENE,59,7.0,7.0,93,0.00,CLR,,0.00,WeatherDisplay:10.37,2013-01-06 06:55:00,
2013-01-06 07:00:00,46.6,44.7,30.38,NE,47,5.0,5.0,93,0.00,CLR,,0.00,WeatherDisplay:10.37,2013-01-06 07:00:00,
2013-01-06 07:05:00,46.6,44.7,30.38,NNW,347,3.5,3.5,93,0.00,CLR,,0.00,WeatherDisplay:10.37,2013-01-06 07:05:00,
2013-01-06 07:10:00,46.6,44.7,30.38,ENE,62,3.5,3.5,93,0.00,CLR,,0.00,WeatherDisplay:10.37,2013-01-06 07:10:00,
2013-01-06 07:16:00,46.7,44.8,30.37,NNE,30,4.6,4.6,93,0.00,CLR,,0.00,WeatherDisplay:10.37,2013-01-06 07:16:00,
2013-01-06 07:21:00,46.7,44.8,30.37,NNE,27,4.6,4.6,93,0.00,CLR,,0.00,WeatherDisplay:10.37,2013-01-06 07:21:00,
2013-01-06 07:26:00,46.6,45.0,30.36,ENE,59,5.8,5.8,94,0.00,CLR,,0.00,WeatherDisplay:10.37,2013-01-06 07:26:00,
2013-01-06 07:31:00,46.6,44.7,30.36,ENE,58,6.9,6.9,93,0.00,CLR,,0.00,WeatherDisplay:10.37,2013-01-06 07:31:00,
2013-01-06 07:36:00,46.6,44.7,30.36,NE,36,5.8,5.8,93,0.00,CLR,,0.00,WeatherDisplay:10.37,2013-01-06 07:36:00,
2013-01-06 07:41:00,46.6,45.0,30.37,NE,50,5.8,5.8,94,0.00,CLR,,0.00,WeatherDisplay:10.37,2013-01-06 07:41:00,
2013-01-06 07:46:00,46.6,45.0,30.37,ENE,63,4.6,4.6,94,0.00,CLR,,0.00,WeatherDisplay:10.37,2013-01-06 07:46:00,
2013-01-06 07:51:00,46.6,45.0,30.37,NW,326,3.5,3.5,94,0.00,CLR,,0.00,WeatherDisplay:10.37,2013-01-06 07:51:00,
2013-01-06 07:56:00,46.7,45.1,30.37,North,356,3.5,3.5,94,0.00,CLR,,0.00,WeatherDisplay:10.37,2013-01-06 07:56:00,
2013-01-06 08:01:00,46.8,45.2,30.37,North,3,2.3,2.3,94,0.00,CLR,,0.00,WeatherDisplay:10.37,2013-01-06 08:01:00,
2013-01-06 08:06:00,46.8,44.9,30.36,East,101,4.0,4.0,93,0.00,CLR,,0.00,WeatherDisplay:10.37,2013-01-06 08:06:00,
2013-01-06 08:11:00,46.7,44.8,30.37,East,83,8.1,8.1,93,0.00,CLR,,0.00,WeatherDisplay:10.37,2013-01-06 08:11:00,
2013-01-06 08:16:00,46.5,44.6,30.36,NNE,32,3.5,3.6,93,0.00,CLR,,0.00,WeatherDisplay:10.37,2013-01-06 08:16:00,
2013-01-06 08:21:00,46.4,44.5,30.36,North,1,5.8,5.8,93,0.00,CLR,,0.00,WeatherDisplay:10.37,2013-01-06 08:21:00,
2013-01-06 08:23:00,46.3,44.7,30.36,NE,54,4.6,4.6,94,0.00,CLR,,0.00,WeatherDisplay:10.37,2013-01-06 08:23:00,
2013-01-06 08:26:00,46.3,44.7,30.36,NE,54,4.6,4.6,94,0.00,CLR,,0.00,WeatherDisplay:10.37,2013-01-06 08:26:00,
2013-01-06 08:31:00,46.3,44.7,30.36,NE,54,4.6,4.6,94,0.00,CLR,,0.00,WeatherDisplay:10.37,2013-01-06 08:31:00,
2013-01-06 08:46:00,46.3,44.7,30.36,NE,54,4.6,4.6,94,0.00,CLR,,0.00,WeatherDisplay:10.37,2013-01-06 08:46:00,
2013-01-06 08:51:00,46.3,44.7,30.36,NE,54,4.6,4.6,94,0.00,CLR,,0.00,WeatherDisplay:10.37,2013-01-06 08:51:00,
2013-01-06 09:18:00,46.3,44.7,30.36,NE,54,4.6,4.6,94,0.00,CLR,,0.00,WeatherDisplay:10.37,2013-01-06 09:18:00,
2013-01-06 09:23:00,46.3,44.7,30.36,NE,54,4.6,4.6,94,0.00,CLR,,0.00,WeatherDisplay:10.37,2013-01-06 09:23:00,
2013-01-06 09:28:00,46.3,44.7,30.36,NE,54,4.6,4.6,94,0.00,CLR,,0.00,WeatherDisplay:10.37,2013-01-06 09:28:00,
2013-01-06 09:34:00,46.3,44.7,30.36,NE,54,4.6,4.6,94,0.00,CLR,,0.00,WeatherDisplay:10.37,2013-01-06 09:34:00,
2013-01-06 09:54:00,46.3,44.7,30.36,NE,54,4.6,4.6,94,0.00,CLR,,0.00,WeatherDisplay:10.37,2013-01-06 09:54:00,
2013-01-06 10:00:00,46.3,44.7,30.36,NE,54,4.6,4.6,94,0.00,CLR,,0.00,WeatherDisplay:10.37,2013-01-06 10:00:00,
2013-01-06 10:31:00,46.3,44.7,30.36,NE,54,4.6,4.6,94,0.00,CLR,,0.00,WeatherDisplay:10.37,2013-01-06 10:31:00,
2013-01-06 10:55:00,46.3,44.7,30.36,NE,54,4.6,4.6,94,0.00,CLR,,0.00,WeatherDisplay:10.37,2013-01-06 10:55:00,
2013-01-06 11:09:00,46.3,44.7,30.36,NE,54,4.6,4.6,94,0.00,CLR,,0.00,WeatherDisplay:10.37,2013-01-06 11:09:00,
2013-01-06 11:16:00,46.3,44.7,30.36,NE,54,4.6,4.6,94,0.00,CLR,,0.00,WeatherDisplay:10.37,2013-01-06 11:16:00,
2013-01-06 11:23:00,46.3,44.7,30.36,NE,54,4.6,4.6,94,0.00,CLR,,0.00,WeatherDisplay:10.37,2013-01-06 11:23:00,
2013-01-06 12:07:00,46.3,44.7,30.36,NE,54,4.6,4.6,94,0.00,CLR,,0.00,WeatherDisplay:10.37,2013-01-06 12:07:00,
2013-01-06 12:18:00,46.3,44.7,30.36,NE,54,4.6,4.6,94,0.00,CLR,,0.00,WeatherDisplay:10.37,2013-01-06 12:18:00,
2013-01-06 12:37:00,46.3,44.7,30.36,NE,54,4.6,4.6,94,0.00,CLR,,0.00,WeatherDisplay:10.37,2013-01-06 12:37:00,
2013-01-06 12:52:00,46.3,44.7,30.36,NE,54,4.6,4.6,94,0.00,CLR,,0.00,WeatherDisplay:10.37,2013-01-06 12:52:00,
2013-01-06 12:59:00,46.3,44.7,30.36,NE,54,4.6,4.6,94,0.00,CLR,,0.00,WeatherDisplay:10.37,2013-01-06 12:59:00,
2013-01-06 14:48:00,46.3,44.7,30.36,NE,54,4.6,4.6,94,0.00,CLR,,0.00,WeatherDisplay:10.37,2013-01-06 14:48:00,
2013-01-06 15:20:00,46.3,44.7,30.36,NE,54,4.6,4.6,94,0.00,CLR,,0.00,WeatherDisplay:10.37,2013-01-06 15:20:00,
2013-01-06 15:42:00,46.3,44.7,30.36,NE,54,4.6,4.6,94,0.00,CLR,,0.00,WeatherDisplay:10.37,2013-01-06 15:42:00,
2013-01-06 16:04:00,46.3,44.7,30.36,NE,54,4.6,4.6,94,0.00,CLR,,0.00,WeatherDisplay:10.37,2013-01-06 16:04:00,
2013-01-06 16:26:00,46.3,44.7,30.36,NE,54,4.6,4.6,94,0.00,CLR,,0.00,WeatherDisplay:10.37,2013-01-06 16:26:00,
2013-01-06 17:08:00,46.3,44.7,30.36,NE,54,4.6,4.6,94,0.00,CLR,,0.00,WeatherDisplay:10.37,2013-01-06 17:08:00,
2013-01-06 17:27:00,46.3,44.7,30.36,NE,54,4.6,4.6,94,0.00,CLR,,0.00,WeatherDisplay:10.37,2013-01-06 17:27:00,
2013-01-06 17:45:00,46.3,44.7,30.36,NE,54,4.6,4.6,94,0.00,CLR,,0.00,WeatherDisplay:10.37,2013-01-06 17:45:00,
2013-01-06 18:50:00,46.3,44.7,30.36,NE,54,4.6,4.6,94,0.00,CLR,,0.00,WeatherDisplay:10.37,2013-01-06 18:50:00,
2013-01-06 19:00:00,46.3,44.7,30.36,NE,54,4.6,4.6,94,0.00,CLR,,0.00,WeatherDisplay:10.37,2013-01-06 19:00:00,
2013-01-06 19:16:00,46.3,44.7,30.36,NE,54,4.6,4.6,94,0.00,CLR,,0.00,WeatherDisplay:10.37,2013-01-06 19:16:00,
2013-01-06 19:36:00,46.3,44.7,30.36,NE,54,4.6,4.6,94,0.00,CLR,,0.00,WeatherDisplay:10.37,2013-01-06 19:36:00,
2013-01-06 20:22:00,46.3,44.7,30.36,NE,54,4.6,4.6,94,0.00,CLR,,0.00,WeatherDisplay:10.37,2013-01-06 20:22:00,
2013-01-06 20:38:00,46.3,44.7,30.36,NE,54,4.6,4.6,94,0.00,CLR,,0.00,WeatherDisplay:10.37,2013-01-06 20:38:00,
2013-01-06 20:46:00,46.3,44.7,30.36,NE,54,4.6,4.6,94,0.00,CLR,,0.00,WeatherDisplay:10.37,2013-01-06 20:46:00,
2013-01-06 20:57:00,46.3,44.7,30.36,NE,54,4.6,4.6,94,0.00,CLR,,0.00,WeatherDisplay:10.37,2013-01-06 20:57:00,
2013-01-06 21:08:00,46.3,44.7,30.36,NE,54,4.6,4.6,94,0.00,CLR,,0.00,WeatherDisplay:10.37,2013-01-06 21:08:00,
2013-01-06 21:39:00,46.3,44.7,30.36,NE,54,4.6,4.6,94,0.00,CLR,,0.00,WeatherDisplay:10.37,2013-01-06 21:39:00,
2013-01-06 22:18:00,46.3,44.7,30.36,NE,54,4.6,4.6,94,0.00,CLR,,0.00,WeatherDisplay:10.37,2013-01-06 22:18:00,
2013-01-06 23:51:00,46.3,44.7,30.36,NE,54,4.6,4.6,94,0.00,CLR,,0.00,WeatherDisplay:10.37,2013-01-06 23:51:00,